"SCLK","SCET","ORBIT_NUMBER","ALTITUDE","LATITUDE_PLANEOGRAPHIC","LATITUDE_PLANETOCENTRIC","LOCAL_TRUE_SOLAR_TIME","WEST_LONGITUDE","X_SUN_DIR_DISTANCE","RHO_PRP_SUN_DISTANCE","SOLAR_ZENITH_ANGLE","ELECTRON_PLASMA_FREQUENCY","FPE_QUALITY","FPP_VERIFICATION","ELECTRON_PLASMA_DENSITY","ELECTRON_CYCLOTRON_PERIOD","FCP_QUALITY","B_MAGNITUDE"
"1/0367031421.41049",2014-12-19T01:10:25.646,13916,1562.00,29.71,29.48,"00:12:16",319.99,-1.400,0.410,163.81,6.40e+01,2,,5.08e+01,2.44e+00,2,1.46e+01
"1/0367031429.11099",2014-12-19T01:10:33.189,13916,1552.00,29.99,29.76,"00:10:06",320.00,-1.400,0.410,163.72,6.30e+01,2,,4.92e+01,2.52e+00,1,1.41e+01
"1/0367031436.46685",2014-12-19T01:10:40.732,13916,1541.00,30.27,30.04,"00:07:55",320.01,-1.390,0.410,163.62,5.50e+01,2,,3.75e+01,2.47e+00,1,1.45e+01
"1/0367031444.16735",2014-12-19T01:10:48.275,13916,1530.00,30.56,30.32,"00:05:45",320.02,-1.390,0.410,163.52,5.80e+01,2,,4.17e+01,2.46e+00,1,1.45e+01
"1/0367031451.52321",2014-12-19T01:10:55.818,13916,1519.00,30.84,30.61,"00:03:35",320.03,-1.390,0.410,163.41,5.60e+01,2,,3.89e+01,2.45e+00,1,1.46e+01
"1/0367031459.22437",2014-12-19T01:11:03.362,13916,1508.00,31.13,30.89,"00:01:25",320.04,-1.380,0.410,163.30,6.50e+01,2,,5.24e+01,2.56e+00,1,1.40e+01
"1/0367031466.58023",2014-12-19T01:11:10.905,13916,1498.00,31.42,31.18,"23:59:15",320.05,-1.380,0.410,163.18,6.50e+01,2,,5.24e+01,2.52e+00,1,1.41e+01
"1/0367031474.28073",2014-12-19T01:11:18.448,13916,1487.00,31.71,31.47,"23:57:04",320.06,-1.370,0.420,163.06,6.10e+01,2,,4.61e+01,2.54e+00,1,1.41e+01
"1/0367031481.63659",2014-12-19T01:11:25.991,13916,1476.00,32.00,31.76,"23:54:54",320.07,-1.370,0.420,162.93,6.10e+01,2,,4.61e+01,2.56e+00,2,1.40e+01
"1/0367031489.33709",2014-12-19T01:11:33.534,13916,1466.00,32.29,32.05,"23:55:02",320.07,-1.370,0.420,162.80,6.80e+01,2,,5.73e+01,2.54e+00,2,1.41e+01
"1/0367031497.03825",2014-12-19T01:11:41.078,13916,1455.00,32.59,32.34,"23:52:51",320.08,-1.360,0.420,162.67,6.80e+01,2,,5.73e+01,2.55e+00,2,1.40e+01
"1/0367031504.39411",2014-12-19T01:11:48.621,13916,1444.00,32.88,32.63,"23:50:41",320.09,-1.360,0.420,162.53,5.90e+01,2,,4.32e+01,2.50e+00,1,1.43e+01
"1/0367031512.09461",2014-12-19T01:11:56.164,13916,1434.00,33.18,32.93,"23:48:31",320.10,-1.350,0.430,162.38,5.10e+01,2,,3.23e+01,2.42e+00,1,1.47e+01
"1/0367031519.45047",2014-12-19T01:12:03.707,13916,1423.00,33.48,33.22,"23:46:21",320.11,-1.350,0.430,162.24,4.90e+01,2,,2.98e+01,2.37e+00,1,1.51e+01
"1/0367031527.15097",2014-12-19T01:12:11.250,13916,1413.00,33.78,33.52,"23:44:11",320.12,-1.350,0.430,162.08,5.00e+01,2,,3.10e+01,2.37e+00,1,1.50e+01
"1/0367031534.50748",2014-12-19T01:12:18.794,13916,1402.00,34.08,33.82,"23:44:18",320.12,-1.340,0.430,161.93,4.90e+01,1,,2.98e+01,2.30e+00,1,1.55e+01
"1/0367031542.20798",2014-12-19T01:12:26.337,13916,1392.00,34.38,34.12,"23:42:08",320.13,-1.340,0.440,161.77,5.10e+01,2,,3.23e+01,2.38e+00,1,1.50e+01
"1/0367031549.56384",2014-12-19T01:12:33.880,13916,1381.00,34.68,34.42,"23:39:58",320.14,-1.330,0.440,161.60,4.80e+01,2,,2.86e+01,2.35e+00,1,1.52e+01
"1/0367031557.26434",2014-12-19T01:12:41.423,13916,1371.00,34.98,34.72,"23:40:05",320.14,-1.330,0.440,161.43,4.80e+01,1,,2.86e+01,2.37e+00,1,1.51e+01
"1/0367031564.62020",2014-12-19T01:12:48.966,13916,1360.00,35.29,35.03,"23:37:55",320.15,-1.330,0.450,161.26,5.10e+01,2,,3.23e+01,2.36e+00,1,1.51e+01
"1/0367031572.32136",2014-12-19T01:12:56.510,13916,1350.00,35.60,35.33,"23:35:45",320.16,-1.320,0.450,161.08,5.20e+01,2,,3.35e+01,2.36e+00,1,1.51e+01
"1/0367031580.02186",2014-12-19T01:13:04.053,13916,1340.00,35.90,35.64,"23:35:52",320.16,-1.320,0.450,160.90,4.80e+01,1,,2.86e+01,2.37e+00,1,1.50e+01
"1/0367031587.37772",2014-12-19T01:13:11.596,13916,1329.00,36.21,35.95,"23:33:42",320.17,-1.310,0.460,160.72,4.90e+01,1,,2.98e+01,2.37e+00,1,1.51e+01
"1/0367031595.07822",2014-12-19T01:13:19.139,13916,1319.00,36.52,36.26,"23:33:49",320.17,-1.310,0.460,160.53,4.60e+01,1,,2.62e+01,2.36e+00,1,1.51e+01
"1/0367031602.43408",2014-12-19T01:13:26.682,13916,1309.00,36.84,36.57,"23:31:39",320.18,-1.300,0.460,160.34,4.90e+01,2,,2.98e+01,2.37e+00,1,1.51e+01
"1/0367031610.13524",2014-12-19T01:13:34.226,13916,1299.00,37.15,36.88,"23:31:46",320.18,-1.300,0.470,160.14,5.10e+01,2,,3.23e+01,2.42e+00,2,1.48e+01
"1/0367031617.49110",2014-12-19T01:13:41.769,13916,1288.00,37.46,37.19,"23:29:36",320.19,-1.290,0.470,159.94,5.00e+01,2,,3.10e+01,,,
"1/0367031625.19160",2014-12-19T01:13:49.312,13916,1278.00,37.78,37.51,"23:29:44",320.19,-1.290,0.470,159.74,5.60e+01,2,,3.89e+01,,,
"1/0367031632.54746",2014-12-19T01:13:56.855,13916,1268.00,38.10,37.82,"23:29:51",320.19,-1.290,0.480,159.53,5.50e+01,2,,3.75e+01,2.42e+00,1,1.47e+01
"1/0367031640.24796",2014-12-19T01:14:04.398,13916,1258.00,38.42,38.14,"23:27:41",320.20,-1.280,0.480,159.32,5.50e+01,2,,3.75e+01,2.46e+00,1,1.45e+01
"1/0367031647.60447",2014-12-19T01:14:11.942,13916,1248.00,38.74,38.46,"23:27:48",320.20,-1.280,0.480,159.10,5.10e+01,1,,3.23e+01,2.47e+00,1,1.45e+01
"1/0367031655.30497",2014-12-19T01:14:19.485,13916,1238.00,39.06,38.78,"23:27:55",320.20,-1.270,0.490,158.88,5.30e+01,2,,3.48e+01,2.49e+00,2,1.43e+01
"1/0367031663.00547",2014-12-19T01:14:27.028,13916,1228.00,39.38,39.10,"23:28:03",320.20,-1.270,0.490,158.66,4.20e+01,2,,2.19e+01,2.58e+00,1,1.38e+01
"1/0367031670.36133",2014-12-19T01:14:34.571,13916,1218.00,39.71,39.42,"23:25:53",320.21,-1.260,0.490,158.44,4.60e+01,2,,2.62e+01,,,
"1/0367031678.06249",2014-12-19T01:14:42.115,13916,1208.00,40.03,39.75,"23:26:00",320.21,-1.260,0.500,158.21,3.90e+01,1,,1.89e+01,2.76e+00,1,1.29e+01
"1/0367031685.41835",2014-12-19T01:14:49.658,13916,1198.00,40.36,40.08,"23:26:07",320.21,-1.250,0.500,157.98,4.20e+01,2,,2.19e+01,2.82e+00,1,1.27e+01
"1/0367031693.11885",2014-12-19T01:14:57.201,13916,1188.00,40.69,40.40,"23:26:15",320.21,-1.250,0.510,157.74,4.60e+01,2,,2.62e+01,2.85e+00,1,1.25e+01
"1/0367031700.47471",2014-12-19T01:15:04.744,13916,1178.00,41.02,40.73,"23:26:22",320.21,-1.240,0.510,157.50,4.90e+01,2,,2.98e+01,2.91e+00,1,1.23e+01
"1/0367031708.17521",2014-12-19T01:15:12.287,13916,1168.00,41.35,41.06,"23:26:29",320.21,-1.240,0.510,157.26,5.20e+01,2,,3.35e+01,2.96e+00,1,1.21e+01
"1/0367031715.53173",2014-12-19T01:15:19.831,13916,1159.00,41.68,41.39,"23:26:37",320.21,-1.230,0.520,157.02,5.10e+01,2,,3.23e+01,3.01e+00,1,1.18e+01
"1/0367031723.23223",2014-12-19T01:15:27.374,13916,1149.00,42.01,41.73,"23:29:01",320.20,-1.230,0.520,156.77,4.40e+01,2,,2.40e+01,2.99e+00,1,1.19e+01
"1/0367031730.58809",2014-12-19T01:15:34.917,13916,1139.00,42.35,42.06,"23:29:09",320.20,-1.220,0.530,156.52,4.70e+01,2,,2.74e+01,3.00e+00,1,1.19e+01
"1/0367031738.28859",2014-12-19T01:15:42.460,13916,1130.00,42.69,42.40,"23:29:16",320.20,-1.220,0.530,156.26,4.50e+01,1,,2.51e+01,3.02e+00,1,1.18e+01
"1/0367031745.64445",2014-12-19T01:15:50.003,13916,1120.00,43.02,42.73,"23:29:24",320.20,-1.210,0.530,156.01,4.40e+01,2,,2.40e+01,2.99e+00,1,1.19e+01
"1/0367031753.34560",2014-12-19T01:15:57.547,13916,1110.00,43.36,43.07,"23:31:48",320.19,-1.210,0.540,155.75,4.30e+01,2,,2.29e+01,3.02e+00,1,1.18e+01
"1/0367031761.04610",2014-12-19T01:16:05.090,13916,1101.00,43.71,43.41,"23:31:56",320.19,-1.200,0.540,155.48,5.20e+01,1,,3.35e+01,3.02e+00,1,1.18e+01
"1/0367031768.40196",2014-12-19T01:16:12.633,13916,1091.00,44.05,43.75,"23:32:03",320.19,-1.200,0.550,155.22,5.80e+01,2,,4.17e+01,3.00e+00,1,1.19e+01
"1/0367031776.10246",2014-12-19T01:16:20.176,13916,1082.00,44.39,44.10,"23:34:28",320.18,-1.190,0.550,154.95,5.80e+01,2,,4.17e+01,2.97e+00,1,1.20e+01
"1/0367031783.45832",2014-12-19T01:16:27.719,13916,1072.00,44.74,44.44,"23:34:35",320.18,-1.190,0.560,154.68,6.00e+01,2,,4.46e+01,2.91e+00,2,1.23e+01
"1/0367031791.15948",2014-12-19T01:16:35.263,13916,1063.00,45.08,44.79,"23:37:00",320.17,-1.180,0.560,154.40,5.90e+01,2,,4.32e+01,2.92e+00,1,1.22e+01
"1/0367031798.51534",2014-12-19T01:16:42.806,13916,1054.00,45.43,45.14,"23:39:25",320.16,-1.180,0.570,154.13,6.30e+01,2,,4.92e+01,2.87e+00,1,1.24e+01
"1/0367031806.21584",2014-12-19T01:16:50.349,13916,1044.00,45.78,45.48,"23:41:50",320.15,-1.170,0.570,153.85,7.00e+01,2,,6.08e+01,2.86e+00,1,1.25e+01
"1/0367031813.57170",2014-12-19T01:16:57.892,13916,1035.00,46.13,45.84,"23:41:57",320.15,-1.170,0.570,153.56,7.00e+01,2,,6.08e+01,2.86e+00,2,1.25e+01
"1/0367031821.27220",2014-12-19T01:17:05.435,13916,1026.00,46.49,46.19,"23:44:22",320.14,-1.160,0.580,153.28,7.30e+01,2,,6.61e+01,2.86e+00,2,1.25e+01
"1/0367031828.62872",2014-12-19T01:17:12.979,13916,1017.00,46.84,46.54,"23:46:47",320.13,-1.160,0.580,152.99,7.40e+01,2,,6.79e+01,2.91e+00,1,1.23e+01
"1/0367031836.32922",2014-12-19T01:17:20.522,13916,1008.00,47.19,46.90,"23:49:12",320.12,-1.150,0.590,152.70,7.10e+01,2,,6.25e+01,2.92e+00,1,1.22e+01
"1/0367031844.02972",2014-12-19T01:17:28.065,13916,998.00,47.55,47.25,"23:51:36",320.11,-1.150,0.590,152.40,7.40e+01,2,,6.79e+01,2.88e+00,1,1.24e+01
"1/0367031851.38558",2014-12-19T01:17:35.608,13916,989.00,47.91,47.61,"23:54:01",320.10,-1.140,0.600,152.11,7.20e+01,2,,6.43e+01,2.95e+00,2,1.21e+01
"1/0367031859.08608",2014-12-19T01:17:43.151,13916,980.00,48.27,47.97,"23:58:44",320.08,-1.140,0.600,151.81,7.00e+01,2,,6.08e+01,2.88e+00,2,1.24e+01
"1/0367031866.44259",2014-12-19T01:17:50.695,13916,971.00,48.63,48.33,"00:01:09",320.07,-1.130,0.610,151.51,6.80e+01,2,,5.73e+01,2.86e+00,2,1.25e+01
"1/0367031874.14309",2014-12-19T01:17:58.238,13916,963.00,48.99,48.69,"00:03:33",320.06,-1.120,0.610,151.21,6.10e+01,2,,4.61e+01,2.83e+00,1,1.26e+01
"1/0367031881.49895",2014-12-19T01:18:05.781,13916,954.00,49.36,49.06,"00:08:16",320.04,-1.120,0.620,150.90,5.60e+01,2,,3.89e+01,2.78e+00,1,1.28e+01
"1/0367031889.19945",2014-12-19T01:18:13.324,13916,945.00,49.72,49.42,"00:10:41",320.03,-1.110,0.620,150.59,5.10e+01,2,,3.23e+01,2.82e+00,1,1.27e+01
"1/0367031896.55531",2014-12-19T01:18:20.867,13916,936.00,50.09,49.79,"00:15:23",320.01,-1.110,0.630,150.28,4.90e+01,1,,2.98e+01,2.84e+00,2,1.26e+01
"1/0367031904.25647",2014-12-19T01:18:28.411,13916,927.00,50.46,50.16,"00:20:05",319.99,-1.100,0.630,149.97,5.00e+01,2,,3.10e+01,2.83e+00,1,1.26e+01
"1/0367031911.61233",2014-12-19T01:18:35.954,13916,919.00,50.83,50.53,"00:24:48",319.97,-1.100,0.640,149.65,5.30e+01,2,,3.48e+01,2.91e+00,1,1.23e+01
"1/0367031919.31283",2014-12-19T01:18:43.497,13916,910.00,51.20,50.90,"00:27:13",319.96,-1.090,0.640,149.33,5.00e+01,2,,3.10e+01,2.93e+00,2,1.22e+01
"1/0367031927.01333",2014-12-19T01:18:51.040,13916,902.00,51.57,51.27,"00:34:12",319.93,-1.080,0.640,149.01,5.10e+01,2,,3.23e+01,2.91e+00,1,1.23e+01
"1/0367031934.36919",2014-12-19T01:18:58.583,13916,893.00,51.94,51.65,"00:38:55",319.91,-1.080,0.650,148.69,5.00e+01,2,,3.10e+01,2.93e+00,1,1.22e+01
"1/0367031942.07035",2014-12-19T01:19:06.127,13916,885.00,52.32,52.02,"00:43:37",319.89,-1.070,0.650,148.36,5.00e+01,2,,3.10e+01,2.82e+00,1,1.27e+01
"1/0367031949.42621",2014-12-19T01:19:13.670,13916,876.00,52.70,52.40,"00:48:19",319.87,-1.070,0.660,148.04,4.80e+01,1,,2.86e+01,2.83e+00,1,1.26e+01
"1/0367031957.12671",2014-12-19T01:19:21.213,13916,868.00,53.07,52.78,"00:55:19",319.84,-1.060,0.660,147.71,4.80e+01,1,,2.86e+01,2.90e+00,1,1.23e+01
"1/0367031964.48257",2014-12-19T01:19:28.756,13916,860.00,53.45,53.16,"01:00:02",319.82,-1.050,0.670,147.38,5.20e+01,2,,3.35e+01,3.08e+00,1,1.16e+01
"1/0367031972.18307",2014-12-19T01:19:36.299,13916,851.00,53.84,53.54,"01:07:02",319.79,-1.050,0.670,147.04,5.30e+01,2,,3.48e+01,3.26e+00,1,1.09e+01
"1/0367031979.53958",2014-12-19T01:19:43.843,13916,843.00,54.22,53.92,"01:14:01",319.76,-1.040,0.680,146.70,5.40e+01,2,,3.62e+01,3.50e+00,1,1.02e+01
"1/0367031987.24008",2014-12-19T01:19:51.386,13916,835.00,54.60,54.31,"01:21:01",319.73,-1.040,0.680,146.37,5.90e+01,2,,4.32e+01,3.60e+00,1,9.93e+00
"1/0367031994.59594",2014-12-19T01:19:58.929,13916,827.00,54.99,54.69,"01:28:01",319.70,-1.030,0.690,146.03,6.30e+01,2,,4.92e+01,3.55e+00,2,1.01e+01
"1/0367032002.29644",2014-12-19T01:20:06.472,13916,819.00,55.37,55.08,"01:35:01",319.67,-1.020,0.690,145.68,5.30e+01,2,,3.48e+01,3.30e+00,1,1.08e+01
"1/0367032009.65230",2014-12-19T01:20:14.015,13916,811.00,55.76,55.47,"01:44:18",319.63,-1.020,0.700,145.34,4.70e+01,1,,2.74e+01,3.28e+00,1,1.09e+01
"1/0367032017.35346",2014-12-19T01:20:21.559,13916,803.00,56.15,55.86,"01:51:18",319.60,-1.010,0.700,144.99,5.60e+01,2,,3.89e+01,3.30e+00,1,1.08e+01
"1/0367032025.05396",2014-12-19T01:20:29.102,13916,795.00,56.54,56.25,"02:00:36",319.56,-1.010,0.710,144.64,6.00e+01,2,,4.46e+01,3.24e+00,1,1.10e+01
"1/0367032032.40982",2014-12-19T01:20:36.645,13916,787.00,56.93,56.65,"02:09:53",319.52,-1.000,0.710,144.29,6.10e+01,2,,4.61e+01,3.25e+00,1,1.10e+01
"1/0367032040.11032",2014-12-19T01:20:44.188,13916,780.00,57.33,57.04,"02:19:10",319.48,-0.990,0.720,143.94,6.30e+01,2,,4.92e+01,3.22e+00,1,1.11e+01
"1/0367032047.46618",2014-12-19T01:20:51.731,13916,772.00,57.72,57.44,"02:28:28",319.44,-0.990,0.720,143.58,6.50e+01,2,,5.24e+01,3.15e+00,1,1.13e+01
"1/0367032055.16734",2014-12-19T01:20:59.275,13916,764.00,58.12,57.83,"02:40:03",319.39,-0.980,0.730,143.22,6.70e+01,2,,5.57e+01,3.14e+00,1,1.14e+01
"1/0367032062.52320",2014-12-19T01:21:06.818,13916,757.00,58.52,58.23,"02:49:20",319.35,-0.970,0.730,142.87,7.00e+01,2,,6.08e+01,3.11e+00,1,1.15e+01
"1/0367032070.22370",2014-12-19T01:21:14.361,13916,749.00,58.92,58.63,"03:00:55",319.30,-0.970,0.740,142.50,7.30e+01,2,,6.61e+01,3.28e+00,1,1.09e+01
"1/0367032077.57956",2014-12-19T01:21:21.904,13916,742.00,59.32,59.04,"03:12:30",319.25,-0.960,0.740,142.14,7.50e+01,2,,6.98e+01,3.22e+00,1,1.11e+01
"1/0367032085.28006",2014-12-19T01:21:29.447,13916,734.00,59.72,59.44,"03:24:05",319.20,-0.950,0.750,141.78,8.20e+01,2,,8.34e+01,3.24e+00,1,1.10e+01
"1/0367032092.63657",2014-12-19T01:21:36.991,13916,727.00,60.12,59.84,"03:37:57",319.14,-0.950,0.750,141.41,8.50e+01,2,,8.96e+01,3.25e+00,1,1.10e+01
"1/0367032100.33707",2014-12-19T01:21:44.534,13916,720.00,60.53,60.25,"03:51:49",319.08,-0.940,0.750,141.04,7.30e+01,2,,6.61e+01,3.31e+00,1,1.08e+01
"1/0367032108.03757",2014-12-19T01:21:52.077,13916,713.00,60.93,60.66,"04:05:42",319.02,-0.930,0.760,140.67,6.90e+01,2,,5.90e+01,3.54e+00,1,1.01e+01
"1/0367032115.39343",2014-12-19T01:21:59.620,13916,706.00,61.34,61.07,"04:19:34",318.96,-0.930,0.760,140.30,7.10e+01,2,,6.25e+01,3.63e+00,1,9.84e+00
"1/0367032123.09393",2014-12-19T01:22:07.163,13916,698.00,61.75,61.48,"04:33:27",318.90,-0.920,0.770,139.92,6.80e+01,2,,5.73e+01,,,
"1/0367032130.45045",2014-12-19T01:22:14.707,13916,691.00,62.16,61.89,"04:49:37",318.83,-0.910,0.770,139.54,6.90e+01,2,,5.90e+01,,,
"1/0367032138.15095",2014-12-19T01:22:22.250,13916,685.00,62.57,62.30,"05:05:47",318.76,-0.910,0.780,139.17,7.00e+01,2,,6.08e+01,,,
"1/0367032145.50681",2014-12-19T01:22:29.793,13916,678.00,62.98,62.72,"05:24:14",318.68,-0.900,0.780,138.79,7.40e+01,2,,6.79e+01,,,
"1/0367032153.20731",2014-12-19T01:22:37.336,13916,671.00,63.39,63.13,"05:42:41",318.60,-0.890,0.790,138.40,7.80e+01,2,,7.54e+01,,,
"1/0367032160.56317",2014-12-19T01:22:44.879,13916,664.00,63.81,63.55,"06:01:09",318.52,-0.890,0.790,138.02,7.60e+01,2,,7.16e+01,,,
"1/0367032168.26433",2014-12-19T01:22:52.423,13916,658.00,64.23,63.97,"06:19:36",318.44,-0.880,0.800,137.64,7.70e+01,2,,7.35e+01,,,
"1/0367032175.62019",2014-12-19T01:22:59.966,13916,651.00,64.64,64.39,"06:40:21",318.35,-0.870,0.800,137.25,7.50e+01,2,,6.98e+01,,,
"1/0367032183.32069",2014-12-19T01:23:07.509,13916,644.00,65.06,64.81,"07:03:24",318.25,-0.870,0.810,136.86,6.90e+01,2,,5.90e+01,,,
"1/0367032191.02119",2014-12-19T01:23:15.052,13916,638.00,65.48,65.23,"07:26:26",318.15,-0.860,0.810,136.47,6.80e+01,2,,5.73e+01,,,
"1/0367032198.37770",2014-12-19T01:23:22.596,13916,632.00,65.90,65.66,"07:49:28",318.05,-0.850,0.820,136.08,6.80e+01,2,,5.73e+01,,,
"1/0367032206.07820",2014-12-19T01:23:30.139,13916,625.00,66.32,66.08,"08:12:31",317.95,-0.850,0.820,135.68,6.90e+01,2,,5.90e+01,,,
"1/0367032213.43406",2014-12-19T01:23:37.682,13916,619.00,66.75,66.51,"08:40:08",317.83,-0.840,0.820,135.29,6.70e+01,2,,5.57e+01,,,
"1/0367032221.13456",2014-12-19T01:23:45.225,13916,613.00,67.17,66.94,"09:07:46",317.71,-0.830,0.830,134.89,8.00e+01,2,,7.94e+01,,,
"1/0367032228.49042",2014-12-19T01:23:52.768,13916,607.00,67.60,67.36,"09:35:23",317.59,-0.820,0.830,134.49,8.20e+01,2,,8.34e+01,,,
"1/0367032236.19158",2014-12-19T01:24:00.312,13916,601.00,68.02,67.79,"10:05:18",317.46,-0.820,0.840,134.09,7.10e+01,2,,6.25e+01,,,
"1/0367032243.54744",2014-12-19T01:24:07.855,13916,595.00,68.45,68.22,"10:37:31",317.32,-0.810,0.840,133.69,6.70e+01,2,,5.57e+01,,,
"1/0367032251.24794",2014-12-19T01:24:15.398,13916,589.00,68.88,68.66,"11:09:43",317.18,-0.800,0.850,133.28,6.90e+01,2,,5.90e+01,,,
"1/0367032258.60380",2014-12-19T01:24:22.941,13916,583.00,69.31,69.09,"11:44:13",317.03,-0.800,0.850,132.88,6.90e+01,2,,5.90e+01,,,
"1/0367032266.30430",2014-12-19T01:24:30.484,13916,578.00,69.74,69.52,"12:21:01",316.87,-0.790,0.860,132.47,6.50e+01,2,,5.24e+01,,,
"1/0367032274.00546",2014-12-19T01:24:38.028,13916,572.00,70.17,69.96,"12:57:48",316.71,-0.780,0.860,132.06,6.50e+01,2,,5.24e+01,,,
"1/0367032281.36132",2014-12-19T01:24:45.571,13916,566.00,70.61,70.40,"13:39:11",316.53,-0.770,0.860,131.65,6.90e+01,2,,5.90e+01,3.88e+00,1,9.19e+00
"1/0367032289.06182",2014-12-19T01:24:53.114,13916,561.00,71.04,70.83,"14:22:51",316.34,-0.770,0.870,131.24,6.90e+01,2,,5.90e+01,3.65e+00,1,9.78e+00
"1/0367032296.41768",2014-12-19T01:25:00.657,13916,555.00,71.47,71.27,"15:06:31",316.15,-0.760,0.870,130.83,7.30e+01,2,,6.61e+01,3.64e+00,1,9.82e+00
"1/0367032304.11818",2014-12-19T01:25:08.200,13916,550.00,71.91,71.71,"15:54:46",315.94,-0.750,0.880,130.42,7.00e+01,2,,6.08e+01,3.72e+00,1,9.60e+00
"1/0367032311.47469",2014-12-19T01:25:15.744,13916,545.00,72.34,72.15,"16:45:18",315.72,-0.740,0.880,130.00,6.70e+01,2,,5.57e+01,3.90e+00,1,9.15e+00
"1/0367032319.17519",2014-12-19T01:25:23.287,13916,540.00,72.78,72.59,"17:38:08",315.49,-0.740,0.890,129.58,6.70e+01,2,,5.57e+01,4.04e+00,1,8.85e+00
"1/0367032326.53105",2014-12-19T01:25:30.830,13916,535.00,73.22,73.03,"18:35:33",315.24,-0.730,0.890,129.16,6.90e+01,2,,5.90e+01,4.23e+00,1,8.44e+00
"1/0367032334.23155",2014-12-19T01:25:38.373,13916,530.00,73.66,73.48,"19:35:16",314.98,-0.720,0.890,128.74,7.10e+01,2,,6.25e+01,,,
"1/0367032341.58741",2014-12-19T01:25:45.916,13916,525.00,74.10,73.92,"20:39:34",314.70,-0.710,0.900,128.32,7.00e+01,2,,6.08e+01,,,
"1/0367032349.28857",2014-12-19T01:25:53.460,13916,520.00,74.54,74.36,"21:46:09",314.41,-0.710,0.900,127.90,6.50e+01,2,,5.24e+01,,,
"1/0367032356.64443",2014-12-19T01:26:01.003,13916,515.00,74.98,74.81,"22:59:36",314.09,-0.700,0.910,127.48,6.70e+01,2,,5.57e+01,5.23e+00,1,6.83e+00
"1/0367032364.34493",2014-12-19T01:26:08.546,13916,510.00,75.42,75.25,"00:15:22",313.76,-0.690,0.910,127.05,6.90e+01,2,,5.90e+01,,,
"1/0367032372.04543",2014-12-19T01:26:16.089,13916,506.00,75.86,75.70,"01:37:59",313.40,-0.680,0.920,126.63,7.70e+01,2,,7.35e+01,4.07e+00,1,8.78e+00
"1/0367032379.40129",2014-12-19T01:26:23.632,13916,501.00,76.30,76.14,"03:07:29",313.01,-0.680,0.920,126.20,7.50e+01,2,,6.98e+01,3.77e+00,1,9.48e+00
"1/0367032387.10244",2014-12-19T01:26:31.176,13916,497.00,76.74,76.59,"04:41:35",312.60,-0.670,0.920,125.77,6.80e+01,2,,5.73e+01,3.65e+00,1,9.78e+00
"1/0367032394.45831",2014-12-19T01:26:38.719,13916,492.00,77.18,77.04,"06:24:50",312.15,-0.660,0.930,125.34,6.60e+01,2,,5.40e+01,,,
"1/0367032402.15881",2014-12-19T01:26:46.262,13916,488.00,77.63,77.48,"08:12:40",311.68,-0.650,0.930,124.91,7.50e+01,2,,6.98e+01,,,
"1/0367032409.51467",2014-12-19T01:26:53.805,13916,484.00,78.07,77.93,"10:11:58",311.16,-0.640,0.940,124.47,8.20e+01,2,,8.34e+01,,,
"1/0367032417.21517",2014-12-19T01:27:01.348,13916,480.00,78.51,78.38,"12:20:26",310.60,-0.640,0.940,124.04,8.80e+01,2,,9.60e+01,,,
"1/0367032424.57168",2014-12-19T01:27:08.892,13916,476.00,78.95,78.82,"14:40:21",309.99,-0.630,0.940,123.61,9.80e+01,2,,1.19e+02,,,
"1/0367032432.27218",2014-12-19T01:27:16.435,13916,472.00,79.39,79.27,"17:11:44",309.33,-0.620,0.950,123.17,9.60e+01,2,,1.14e+02,,,
"1/0367032439.62804",2014-12-19T01:27:23.978,13916,468.00,79.83,79.71,"19:56:53",308.61,-0.610,0.950,122.73,1.04e+02,2,,1.34e+02,,,
"1/0367032447.32854",2014-12-19T01:27:31.521,13916,464.00,80.27,80.15,"22:58:03",307.82,-0.610,0.950,122.30,1.08e+02,2,,1.45e+02,,,
"1/0367032455.02904",2014-12-19T01:27:39.064,13916,461.00,80.71,80.60,"02:17:34",306.95,-0.600,0.960,121.86,1.20e+02,2,,1.79e+02,,,
"1/0367032462.38556",2014-12-19T01:27:46.608,13916,457.00,81.14,81.04,"05:57:42",305.99,-0.590,0.960,121.42,1.27e+02,2,,2.00e+02,,,
"1/0367032470.08606",2014-12-19T01:27:54.151,13916,454.00,81.58,81.48,"10:00:46",304.93,-0.580,0.970,120.97,1.36e+02,2,,2.29e+02,,,
"1/0367032477.44192",2014-12-19T01:28:01.694,13916,450.00,82.01,81.91,"14:31:19",303.75,-0.570,0.970,120.53,1.33e+02,2,,2.19e+02,2.72e+00,1,1.31e+01
"1/0367032485.14242",2014-12-19T01:28:09.237,13916,447.00,82.44,82.34,"19:36:15",302.42,-0.570,0.970,120.09,1.35e+02,2,,2.26e+02,2.46e+00,2,1.45e+01
"1/0367032492.49828",2014-12-19T01:28:16.780,13916,444.00,82.86,82.77,"01:15:34",300.94,-0.560,0.980,119.65,1.29e+02,2,,2.06e+02,2.36e+00,1,1.51e+01
"1/0367032500.19943",2014-12-19T01:28:24.324,13916,441.00,83.28,83.20,"07:38:25",299.27,-0.550,0.980,119.20,1.27e+02,2,,2.00e+02,2.41e+00,2,1.48e+01
"1/0367032507.55529",2014-12-19T01:28:31.867,13916,437.00,83.69,83.61,"14:56:17",297.36,-0.540,0.980,118.75,1.18e+02,2,,1.73e+02,2.44e+00,2,1.46e+01
"1/0367032515.25580",2014-12-19T01:28:39.410,13916,435.00,84.10,84.02,"23:13:44",295.19,-0.530,0.990,118.31,1.23e+02,2,,1.88e+02,2.49e+00,2,1.43e+01
"1/0367032522.61166",2014-12-19T01:28:46.953,13916,432.00,84.49,84.43,"08:44:31",292.70,-0.520,0.990,117.86,1.20e+02,2,,1.79e+02,2.61e+00,2,1.37e+01
"1/0367032530.31216",2014-12-19T01:28:54.496,13916,429.00,84.88,84.81,"19:46:59",289.81,-0.520,0.990,117.41,1.19e+02,2,,1.76e+02,2.51e+00,2,1.42e+01
"1/0367032538.01331",2014-12-19T01:29:02.040,13916,426.00,85.25,85.19,"08:34:52",286.46,-0.510,1.000,116.96,1.11e+02,2,,1.53e+02,2.57e+00,2,1.39e+01
"1/0367032545.36917",2014-12-19T01:29:09.583,13916,424.00,85.60,85.54,"23:31:06",282.55,-0.500,1.000,116.51,1.08e+02,2,,1.45e+02,2.23e+00,1,1.61e+01
"1/0367032553.06967",2014-12-19T01:29:17.126,13916,421.00,85.93,85.87,"16:58:35",277.98,-0.490,1.000,116.06,1.25e+02,2,,1.94e+02,1.98e+00,2,1.81e+01
"1/0367032560.42553",2014-12-19T01:29:24.669,13916,419.00,86.22,86.17,"13:22:33",272.64,-0.480,1.010,115.61,1.39e+02,2,,2.40e+02,2.03e+00,2,1.76e+01
"1/0367032568.12603",2014-12-19T01:29:32.212,13916,416.00,86.48,86.43,"13:01:19",266.45,-0.470,1.010,115.16,1.28e+02,2,,2.03e+02,2.01e+00,2,1.78e+01
"1/0367032575.48255",2014-12-19T01:29:39.756,13916,414.00,86.69,86.65,"16:06:21",259.36,-0.470,1.010,114.71,1.12e+02,2,,1.56e+02,2.09e+00,2,1.71e+01
"1/0367032583.18305",2014-12-19T01:29:47.299,13916,412.00,86.85,86.80,"22:23:53",251.43,-0.460,1.020,114.25,1.00e+02,2,,1.24e+02,2.16e+00,2,1.65e+01
"1/0367032590.53891",2014-12-19T01:29:54.842,13916,410.00,86.93,86.89,"07:08:07",242.86,-0.450,1.020,113.80,9.30e+01,2,,1.07e+02,2.12e+00,2,1.68e+01
"1/0367032598.23941",2014-12-19T01:30:02.385,13916,408.00,86.95,86.91,"17:03:23",233.98,-0.440,1.020,113.34,7.90e+01,2,,7.74e+01,2.12e+00,2,1.68e+01
"1/0367032605.59527",2014-12-19T01:30:09.928,13916,406.00,86.89,86.85,"02:31:09",225.22,-0.430,1.030,112.89,8.10e+01,2,,8.14e+01,2.21e+00,2,1.62e+01
"1/0367032613.29642",2014-12-19T01:30:17.472,13916,404.00,86.77,86.72,"10:06:37",216.95,-0.420,1.030,112.43,7.70e+01,2,,7.35e+01,2.16e+00,2,1.65e+01
"1/0367032620.65228",2014-12-19T01:30:25.015,13916,403.00,86.58,86.53,"14:45:37",209.45,-0.420,1.030,111.98,7.50e+01,2,,6.98e+01,2.14e+00,2,1.67e+01
"1/0367032628.35278",2014-12-19T01:30:32.558,13916,401.00,86.33,86.28,"16:02:55",202.83,-0.410,1.030,111.52,8.30e+01,2,,8.54e+01,2.26e+00,2,1.58e+01